Location: Finkenbach
(49.5340°N, 8.9188°E)
Time: 15:58:52
(UTC+00:00)

CZ-2C R/B - Pass Details

Date: 17 June 2025
Orbit: 632 x 691 km, 98.1° (Epoch: 20 July)

Event Time Altitude Azimuth Distance (km) Brightness Sun altitude
Rises 21:40:49 0° 20° (NNE) 2,997 7.8 -13.4°
Reaches altitude 10° 21:43:11 10° 29° (NNE) 2,090 6.8 -13.6°
Maximum altitude 21:47:25 37° 97° (E) 1,049 4.5 -13.9°
Enters shadow 21:49:48 22° 150° (SSE) 1,464 4.8 -14.0°
